Regional Weather Roundup
Issued by NWS

Home | Current Version | Previous Version | Graphics & Text | Print | Product List | Glossary On
Versions: 1 2 3 4 5 6 7 8 9 10 11 12 13 14 15 16 17 18 19 20 21 22 23 24 25 26 27
000
ASUS45 KBOU 290807
RWRCO

WEATHER ROUNDUP FOR COLORADO
NATIONAL WEATHER SERVICE DENVER/BOULDER CO
200 AM MDT FRI APR 29 2016

NOTE: "FAIR" INDICATES FEW OR NO CLOUDS BELOW 12000 FEET WITH NO
SIGNIFICANT WEATHER AND/OR OBSTRUCTIONS TO VISIBILITY.

COZ001>005-013-030-031-290900-
...NORTHWEST COLORADO...

CITY           SKY/WX    TMP DP  RH WIND       PRES   REMARKS
CRAIG          LGT RAIN  38  34  85 SE15      29.90F
HAYDEN         CLOUDY    36  30  80 E5        29.90F
MEEKER         CLOUDY    38  34  85 E8        29.85F
MOUNT WERNER   NOT AVBL
STEAMBOAT SPGS CLOUDY    33  32  96 N3        29.89F
WALDEN         FAIR      25  21  86 CALM      29.94F
$$

COZ006>008-011-290900-
...WEST CENTRAL VALLEYS...

CITY           SKY/WX    TMP DP  RH WIND       PRES   REMARKS
GRAND JUNCTION MOCLDY    42  39  89 W8        29.81S
MONTROSE       FAIR      45  30  55 S16       29.84S
EAGLE          CLOUDY    36  36 100 E5        29.92R
RIFLE          CLOUDY    42  35  76 NE13G22   29.83F
DELTA          NOT AVBL
NUCLA          NOT AVBL
$$

COZ017>023-064>068-290900-
...SOUTHWEST COLORADO...

CITY           SKY/WX    TMP DP  RH WIND       PRES   REMARKS
DURANGO        LGT SNOW  36  31  82 S8        29.92F
CORTEZ         FAIR      33  30  88 E3        29.85F
PAGOSA SPRINGS CLOUDY    41  23  47 W12G18    29.91R
TELLURIDE      LGT SNOW  32  25  76 SE12G17   29.94R WCI  23
WOLF CREEK PAS NOT AVBL
$$

COZ009-010-012-014-032>034-037-058>063-290900-
...CENTRAL COLORADO...

CITY           SKY/WX    TMP DP  RH WIND       PRES   REMARKS
ASPEN          MOCLDY    34  31  88 CALM      29.88R
BUENA VISTA    LGT SNOW  30  29  96 SE3       29.99F VSB 3/4
COPPER MTN     NOT AVBL
BERTHOUD PASS  HAZE      16   5  62 SE23      29.99F VSB<1/4 WCI  -2
COTTONWOOD PAS LGT SNOW  30  28  93 E5        30.00S VSB 3/4 WCI  25
GUNNISON       FAIR      37  28  70 N6        29.91S
KREMMLING      FAIR      34  32  93 CALM      29.92F
LEADVILLE      CLOUDY    25  25 100 S10       29.95S WCI  15
MONARCH PASS   CLOUDY    19  18  93 E23G29    30.07S WCI   2
SALIDA         CLOUDY    32  32  99 E8        30.06F WCI  25
SUNLIGHT       CLOUDY    30  30 100 E3        29.95F
WILKERSON PASS LGT SNOW  21  19  93 SE6       30.05R VSB 3/4 WCI  14
$$

COZ069>075-290900-
...SAN LUIS VALLEY/SANGRE DE CRISTO MOUNTAINS...

CITY           SKY/WX    TMP DP  RH WIND       PRES   REMARKS
ALAMOSA        CLOUDY    37  33  85 SE6       29.88F
LA VETA PASS   SNOW      27  23  86 MISG      29.98F VSB 1/2
SAGUACHE       CLOUDY    34  34 100 CALM      29.92F
$$

COZ035-036-038>040-290900-
...NORTHERN COLORADO FRONT RANGE...

CITY           SKY/WX    TMP DP  RH WIND       PRES   REMARKS
DENVER INTL AP FLURRIES  35  31  85 SE9       30.02F WCI  28
DMNS CITY PARK   N/A     35  34  95 SE8G14    30.03F WCI  29
AURORA         LGT RAIN  34  33  99 SE6       30.03F WCI  28
FRONT RANGE AP NOT AVBL
ERIE MUNI ARPT DRIZZLE   38  37  97 E7        30.04S
BOULDER MUN AP LGT RAIN  36  36 100 E5        30.03S
CENTENNIAL     LGT SNOW  34  32  92 S6        30.02S FOG     WCI  29
BROOMFIELD     RAIN      36  36 100 E6        30.03S
FORT COLLINS   CLOUDY    36  34  93 SE10      30.04F
LONGMONT       NOT AVBL
$$

COZ041-046-047-076>085-087-088-290900-
...PIKES PEAK/PALMER DIVIDE AND SOUTHERN FOOTHILLS...

CITY           SKY/WX    TMP DP  RH WIND       PRES   REMARKS
COLO. SPRINGS  LGT SNOW  33  31  92 CALM      30.04F VSB 3/4
A. F. ACADEMY  LGT SNOW  32  32 100 SE5       30.03S FOG     WCI  27
SCHRIEVER AFB  NOT AVBL
ELLICOTT       NOT AVBL
FALCON         LGT SNOW  32  32 100 CALM      30.03F
FORT CARSON    LGT SNOW  32  32 100 NW5       30.03S FOG     WCI  27
LIMON          LGT SNOW  33  33 100 E6        30.03F FOG     WCI  28
MONUMENT HILL  LGT SNOW  30  30 100 SE5       30.03F WCI  25
TRINIDAD       CLOUDY    33  32  96 CALM      30.00R FOG
$$

COZ042>045-048>051-090-091-290900-
...NORTHEAST COLORADO...

CITY           SKY/WX    TMP DP  RH WIND       PRES   REMARKS
GREELEY ARPT   CLOUDY    37  34  87 E9        30.05F
AKRON          CLOUDY    37  34  89 E9        30.05S
BURLINGTON     LGT RAIN  40  38  93 E12       30.06S
WRAY           NOT AVBL
STERLING       CLOUDY    37  36  93 NE7       30.05F
HOLYOKE        NOT AVBL
FORT MORGAN    FLURRIES  37  35  91 E7        30.05F
$$

COZ086-089-092>099-290900-
...SOUTHEAST COLORADO...

CITY           SKY/WX    TMP DP  RH WIND       PRES   REMARKS
PUEBLO         LGT RAIN  41  35  79 SE5       30.03R
LA JUNTA       RAIN      43  41  93 NE13      29.99F
LAMAR          LGT RAIN  44  42  93 NE14      29.97R
SPRINGFIELD      N/A     41  41 100 NE23G32   29.93F
$$




USA.gov is the U.S. government's official web portal to all federal, state and local government web resources and services.